Elkins, WV

8:24 AM EST on February 24, 2017 (GMT -0500)
Elkins-Randolph County

Weather History for KEKN - November, 2012

Change the Weather History Date:

Sunday, November 25, 2012

  Actual Average Record
Temperature  
Mean Temperature 35 °F 39 °F  
Max Temperature 45 °F 49 °F 74 °F (1908)
Min Temperature 25 °F 28 °F 4 °F (1950)
Degree Days  
Heating Degree Days 30 26  
Month to date heating degree days 671 558  
Since 1 July heating degree days 1232 1149  
Cooling Degree Days 0 0  
Month to date cooling degree days 0 0  
Year to date cooling degree days 675 475  
Moisture  
Dew Point 15 °F    
Average Humidity 48    
Maximum Humidity 74    
Minimum Humidity 22    
Precipitation  
Precipitation T in 0.12 in 1.82 in (1900)
Month to date precipitation 0.26 2.79  
Year to date precipitation 41.92 42.08  
Snow  
Snow T in - - ()
Month to date snowfall 0.4  
Since 1 September snowfall 18.4  
Snow Depth 0.00 in    
Sea Level Pressure  
Sea Level Pressure 30.06 in    
Wind  
Wind Speed 8 mph (WSW)    
Max Wind Speed 20 mph    
Max Gust Speed 35 mph    
Visibility 10 miles    
Events Snow    
T = Trace of Precipitation, MM = Missing Value Source: NWS Daily Summary

Daily Weather History Graph

Daily Weather History Graph

Search for Another Location

Airport or City:

Trip Planner

Search our weather history database for the weather conditions in past years. The results will help you decide how hot, cold, wet, or windy it might be!

Date:

Astronomy

Nov. 25, 2012 Rise Set
Actual Time 7:13 AM EST 4:59 PM EST
Civil Twilight 6:44 AM EST 5:28 PM EST
Nautical Twilight 6:11 AM EST 6:01 PM EST
Astronomical Twilight 5:39 AM EST 6:33 PM EST
Moon 3:14 PM EST (11/25) 4:26 AM EST (11/25)
Length of Visible Light 10h 44m
Length of Day
9h 46m
Waxing Gibbous, 93% of the Moon is Illuminated
Nov 25
Waxing Gibbous
Nov 28
Full
Dec 6
Last Quarter
Dec 13
New
Dec 20
First Quarter

Hourly Weather History & Observations

Time (EST) Temp. Windchill Dew Point Humidity Pressure Visibility Wind Dir Wind Speed Gust Speed Precip Events Conditions
12:24 AM 26.6 °F 20.0 °F 17.6 °F 69% 30.05 in 8.0 mi West 5.8 mph 16.1 mph 0.00 in Snow Light Snow
12:51 AM 26.1 °F 17.6 °F 17.1 °F 69% 30.12 in 10.0 mi West 8.1 mph - 0.00 in   Overcast
1:51 AM 25.0 °F 18.1 °F 16.0 °F 69% 30.12 in 10.0 mi WSW 5.8 mph - N/A   Overcast
2:51 AM 25.0 °F 18.1 °F 17.1 °F 72% 30.13 in 10.0 mi WSW 5.8 mph - N/A   Overcast
3:51 AM 25.0 °F 17.1 °F 16.0 °F 69% 30.13 in 10.0 mi WSW 6.9 mph - N/A   Overcast
4:51 AM 25.0 °F 19.3 °F 17.1 °F 72% 30.14 in 10.0 mi WSW 4.6 mph - N/A   Overcast
5:51 AM 26.1 °F 18.4 °F 17.1 °F 69% 30.12 in 10.0 mi SSW 6.9 mph - N/A   Overcast
6:51 AM 26.1 °F 21.9 °F 17.1 °F 69% 30.13 in 10.0 mi SW 3.5 mph - N/A   Overcast
7:27 AM 24.8 °F 17.9 °F 15.8 °F 69% 30.03 in 10.0 mi SW 5.8 mph - N/A   Mostly Cloudy
7:51 AM 26.1 °F 21.9 °F 17.1 °F 69% 30.13 in 10.0 mi SSW 3.5 mph - N/A   Scattered Clouds
8:51 AM 26.1 °F 18.4 °F 17.1 °F 69% 30.12 in 10.0 mi South 6.9 mph - N/A   Clear
9:51 AM 28.9 °F 22.8 °F 18.0 °F 64% 30.11 in 10.0 mi SSE 5.8 mph - N/A   Partly Cloudy
10:51 AM 33.1 °F 27.7 °F 18.0 °F 54% 30.07 in 10.0 mi Variable 5.8 mph - N/A   Clear
11:51 AM 37.0 °F 30.4 °F 15.1 °F 41% 30.03 in 10.0 mi West 9.2 mph 16.1 mph N/A   Scattered Clouds
12:51 PM 39.0 °F 31.0 °F 12.9 °F 34% 30.00 in 10.0 mi WSW 13.8 mph 21.9 mph N/A   Clear
1:51 PM 43.0 °F 38.8 °F 12.9 °F 30% 29.96 in 10.0 mi Variable 6.9 mph - N/A   Clear
2:51 PM 44.1 °F 37.4 °F 10.0 °F 25% 29.96 in 10.0 mi WSW 13.8 mph 20.7 mph N/A   Clear
3:51 PM 44.1 °F 39.5 °F 9.0 °F 24% 29.95 in 10.0 mi SSW 8.1 mph 16.1 mph N/A   Clear
4:51 PM 42.1 °F 37.1 °F 12.0 °F 29% 29.96 in 10.0 mi SSW 8.1 mph - N/A   Clear
5:51 PM 41.0 °F 36.4 °F 12.9 °F 32% 29.98 in 10.0 mi SW 6.9 mph - N/A   Clear
6:51 PM 42.1 °F 35.7 °F 12.0 °F 29% 30.00 in 10.0 mi West 11.5 mph 18.4 mph N/A   Scattered Clouds
7:51 PM 42.1 °F 36.1 °F 12.0 °F 29% 30.02 in 10.0 mi WSW 10.4 mph - N/A   Partly Cloudy
8:51 PM 42.1 °F 35.2 °F 14.0 °F 32% 30.03 in 10.0 mi West 12.7 mph 19.6 mph N/A   Clear
9:51 PM 41.0 °F 35.8 °F 15.1 °F 35% 30.04 in 10.0 mi West 8.1 mph 19.6 mph N/A   Clear
10:51 PM 41.0 °F 35.2 °F 15.1 °F 35% 30.04 in 10.0 mi West 9.2 mph - N/A   Clear
11:51 PM 39.9 °F 35.8 °F 15.1 °F 36% 30.05 in 10.0 mi West 5.8 mph - N/A   Clear